| time (UTC) | temp F | wind direction | speed MPH | gust MPH | rain 1hr in | rain 24hr in | rain mn in | humidity % | barometer mb |
| 20260503213509 | 72 | 45 | 10.0 | 13.0 | 0.00 | 0.00 | 0.00 | 47 | 1019.3 |
| 20260503212509 | 73 | 45 | 11.0 | 14.0 | 0.00 | 0.00 | 0.00 | 45 | 1019.4 |
| 20260503211507 | 69 | 45 | 10.0 | 14.0 | 0.00 | 0.00 | 0.00 | 54 | 1019.6 |
| 20260503205608 | 67 | 45 | 13.0 | 17.0 | 0.00 | 0.00 | 0.00 | 57 | 1019.9 |
| 20260503203707 | 68 | 45 | 12.0 | 14.0 | 0.00 | 0.00 | 0.00 | 54 | 1020.1 |
| 20260503202708 | 69 | 45 | 14.0 | 15.0 | 0.00 | 0.00 | 0.00 | 52 | 1020.2 |
| 20260503195709 | 69 | 45 | 13.0 | 16.0 | 0.00 | 0.00 | 0.00 | 49 | 1020.6 |
| 20260503193807 | 71 | 45 | 15.0 | 21.0 | 0.00 | 0.00 | 0.00 | 49 | 1020.7 |
| 20260503192810 | 70 | 42 | 11.0 | 18.0 | 0.00 | 0.00 | 0.00 | 49 | 1020.9 |
| 20260503191808 | 71 | 46 | 12.0 | 16.0 | 0.00 | 0.00 | 0.00 | 47 | 1021.0 |
| 20260503190810 | 70 | 45 | 8.0 | 13.0 | 0.00 | 0.00 | 0.00 | 50 | 1021.4 |
| 20260503185908 | 70 | 45 | 11.0 | 16.0 | 0.00 | 0.00 | 0.00 | 50 | 1021.4 |
| 20260503183909 | 71 | 49 | 9.0 | 18.0 | 0.00 | 0.00 | 0.00 | 51 | 1021.4 |
| 20260503183008 | 71 | 43 | 8.0 | 15.0 | 0.00 | 0.00 | 0.00 | 50 | 1021.7 |
| 20260503182009 | 70 | 50 | 6.0 | 9.0 | 0.00 | 0.00 | 0.00 | 52 | 1022.0 |
| 20260503181108 | 70 | 72 | 5.0 | 11.0 | 0.00 | 0.00 | 0.00 | 53 | 1021.9 |
| 20260503180109 | 69 | 46 | 9.0 | 15.0 | 0.00 | 0.00 | 0.00 | 53 | 1022.2 |
| 20260503175109 | 68 | 41 | 10.0 | 16.0 | 0.00 | 0.00 | 0.00 | 55 | 1022.2 |
| 20260503174207 | 68 | 45 | 9.0 | 13.0 | 0.00 | 0.00 | 0.00 | 55 | 1022.3 |
| 20260503173208 | 67 | 45 | 10.0 | 16.0 | 0.00 | 0.00 | 0.00 | 58 | 1022.4 |
| 20260503172207 | 66 | 48 | 9.0 | 15.0 | 0.00 | 0.00 | 0.00 | 57 | 1022.5 |
| 20260503171208 | 66 | 45 | 13.0 | 19.0 | 0.00 | 0.00 | 0.00 | 57 | 1022.4 |
| 20260503170208 | 65 | 49 | 10.0 | 14.0 | 0.00 | 0.00 | 0.00 | 58 | 1022.8 |
| 20260503160210 | 60 | 37 | 6.0 | 10.0 | 0.00 | 0.00 | 0.00 | 69 | 1023.4 |
| 20260503150409 | 59 | 45 | 10.0 | 14.0 | 0.00 | 0.00 | 0.00 | 72 | 1023.5 |
| 20260503130808 | 52 | 45 | 0.0 | 2.0 | 0.00 | 0.00 | 0.00 | 92 | 1023.4 |
| 20260503080107 | 56 | 180 | 0.0 | 0.0 | 0.00 | 0.00 | 0.00 | 92 | 1023.8 |
| 20260503072307 | 57 | 180 | 0.0 | 0.0 | 0.00 | 0.00 | 0.00 | 91 | 1023.9 |
| 20260503070308 | 57 | 225 | 0.0 | 0.0 | 0.00 | 0.00 | 0.00 | 90 | 1023.7 |
| 20260503060118 | 59 | 112 | 0.0 | 0.0 | 0.00 | 0.00 | 0.00 | 86 | 1023.7 |
| 20260503055119 | 59 | 118 | 0.0 | 4.0 | 0.00 | 0.00 | 0.00 | 86 | 1023.8 |
| 20260503054117 | 59 | 270 | 0.0 | 0.0 | 0.00 | 0.00 | 0.00 | 86 | 1024.0 |
| 20260503053117 | 59 | 270 | 0.0 | 0.0 | 0.00 | 0.00 | 0.00 | 86 | 1023.9 |
| 20260503052117 | 59 | 270 | 0.0 | 0.0 | 0.00 | 0.00 | 0.00 | 84 | 1024.0 |
| 20260503050118 | 60 | 45 | 0.0 | 1.0 | 0.00 | 0.00 | 0.00 | 83 | 1024.0 |
| 20260503044219 | 61 | 32 | 4.0 | 6.0 | 0.00 | 0.00 | 0.00 | 80 | 1024.0 |
| 20260503043316 | 62 | 45 | 0.0 | 0.0 | 0.00 | 0.00 | 0.00 | 80 | 1023.7 |
| 20260503042319 | 62 | 45 | 1.0 | 2.0 | 0.00 | 0.00 | 0.00 | 78 | 1023.9 |
| 20260503041318 | 63 | 12 | 1.0 | 2.0 | 0.00 | 0.00 | 0.00 | 76 | 1023.8 |
| 20260503040416 | 64 | 225 | 0.0 | 0.0 | 0.00 | 0.00 | 0.00 | 74 | 1023.6 |
| 20260503035419 | 65 | 225 | 0.0 | 0.0 | 0.00 | 0.00 | 0.00 | 72 | 1023.5 |
| 20260503034419 | 66 | 270 | 0.0 | 1.0 | 0.00 | 0.00 | 0.00 | 70 | 1023.3 |
| 20260503033418 | 66 | 247 | 3.0 | 5.0 | 0.00 | 0.00 | 0.00 | 70 | 1023.0 |
| 20260503032420 | 66 | 225 | 3.0 | 4.0 | 0.00 | 0.00 | 0.00 | 68 | 1022.7 |
| 20260503031517 | 67 | 248 | 4.0 | 4.0 | 0.00 | 0.00 | 0.00 | 69 | 1022.4 |
| 20260503025518 | 66 | 232 | 4.0 | 5.0 | 0.00 | 0.00 | 0.00 | 68 | 1022.4 |
| 20260503023518 | 67 | 225 | 4.0 | 5.0 | 0.00 | 0.00 | 0.00 | 68 | 1022.0 |
| 20260503022519 | 67 | 225 | 5.0 | 6.0 | 0.00 | 0.00 | 0.00 | 67 | 1021.9 |
| 20260503021418 | 67 | 225 | 4.0 | 5.0 | 0.00 | 0.00 | 0.00 | 66 | 1021.7 |
| 20260503020416 | 68 | 225 | 6.0 | 7.0 | 0.00 | 0.00 | 0.00 | 64 | 1021.7 |
| 20260503020317 | 68 | 225 | 5.0 | 7.0 | 0.00 | 0.00 | 0.00 | 65 | 1021.7 |
| 20260503015318 | 68 | 224 | 4.0 | 7.0 | 0.00 | 0.00 | 0.00 | 64 | 1021.6 |
| 20260503014318 | 68 | 220 | 6.0 | 10.0 | 0.00 | 0.00 | 0.00 | 64 | 1021.5 |
| 20260503012317 | 69 | 205 | 4.0 | 9.0 | 0.00 | 0.00 | 0.00 | 62 | 1021.4 |
| 20260503011317 | 69 | 228 | 4.0 | 7.0 | 0.00 | 0.00 | 0.00 | 63 | 1021.5 |
| 20260503010317 | 69 | 216 | 8.0 | 14.0 | 0.00 | 0.00 | 0.00 | 63 | 1021.6 |
| 20260503005318 | 69 | 215 | 8.0 | 12.0 | 0.00 | 0.00 | 0.00 | 62 | 1021.4 |
| 20260503005217 | 69 | 208 | 11.0 | 16.0 | 0.00 | 0.00 | 0.00 | 63 | 1021.5 |
| 20260503002218 | 68 | 225 | 8.0 | 11.0 | 0.00 | 0.00 | 0.00 | 63 | 1021.4 |
| 20260503001217 | 68 | 216 | 5.0 | 9.0 | 0.00 | 0.00 | 0.00 | 63 | 1021.4 |
| 20260503000318 | 68 | 225 | 7.0 | 9.0 | 0.00 | 0.00 | 0.00 | 61 | 1021.4 |
| 20260502235320 | 69 | 229 | 7.0 | 9.0 | 0.00 | 0.00 | 0.00 | 59 | 1021.4 |
| 20260502234319 | 70 | 225 | 8.0 | 9.0 | 0.00 | 0.00 | 0.00 | 58 | 1021.4 |
| 20260502233417 | 70 | 216 | 4.0 | 8.0 | 0.00 | 0.00 | 0.00 | 57 | 1021.5 |
| 20260502232417 | 70 | 225 | 5.0 | 6.0 | 0.00 | 0.00 | 0.00 | 58 | 1021.6 |
| 20260502230418 | 68 | 232 | 4.0 | 5.0 | 0.00 | 0.00 | 0.00 | 60 | 1022.2 |
| 20260502225517 | 68 | 205 | 4.0 | 7.0 | 0.00 | 0.00 | 0.00 | 61 | 1022.2 |
| 20260502223518 | 66 | 243 | 5.0 | 6.0 | 0.00 | 0.00 | 0.00 | 65 | 1022.6 |
| 20260502222617 | 65 | 227 | 4.0 | 5.0 | 0.00 | 0.00 | 0.00 | 66 | 1022.8 |
| 20260502220618 | 64 | 246 | 7.0 | 8.0 | 0.00 | 0.00 | 0.00 | 68 | 1023.3 |
| 20260502220517 | 64 | 242 | 6.0 | 7.0 | 0.00 | 0.00 | 0.00 | 67 | 1023.3 |
| 20260502215616 | 64 | 225 | 6.0 | 9.0 | 0.00 | 0.00 | 0.00 | 68 | 1023.5 |
| 20260502214618 | 63 | 215 | 7.0 | 11.0 | 0.00 | 0.00 | 0.00 | 69 | 1023.7 |